sat.trackr.live / text

‹ back to catalog

STARLINK-1735

NORAD 46565 · 2020-070AK

PAYLOAD ACTIVE UNKNOWN

§ Identity

Operator
Country
US
Launch date
2020-10-06
Launch site
AFETR
Launch vehicle
Mass (kg)
RCS (m²)

Purposes: comms

External: N2YO · Heavens-Above · Gunter

§ Orbital elements

Epoch: 2026-05-25T03:19:39.772128Z

Period
91.27 min
Inclination
53.0351°
Eccentricity
0.0010576
Mean motion
15.77796627 rev/d
Perigee alt
329.6 km
Apogee alt
343.8 km
Semi-major
6,714.8 km
B*
7.6930e-4
RAAN
100.8315°
Arg perigee
67.4851°
Mean anomaly
292.7287°
Rev number
31,232

§ Raw data

STARLINK-17351 46565U 20070AK  26145.13865477  .00133912  00000+0  76930-3 0  99902 46565  53.0351 100.8315 0010576  67.4851 292.7287 15.77796627312328

JSON: /api/v1/satellites/46565 · /tle

For live sub-satellite position, see the globe view (requires WebGL).

§ Visibility from observer

Set your observer location to see the next 7 days of passes ≥ 10°. The values pass through the URL so the page stays shareable.

No JS? Fill the form by hand. The geolocation button needs JavaScript.